Haywood NorAM CEC Pursuit Day 2 2019 | Zone4.ca



Haywood NorAM CEC Pursuit Day 2 2019

Date: Feb 3, 2019
StartList
Location: Duntroon
Host Club: Highlands Trailblazers

Jury
Technical Delegate:  Jacques Dumont 
Chief of Competition:  Shawn Sinclair 
Asst TD  Pierrot Bernier 
App TD  Claude Laramee 
CCC Race Director  Dave Dyer 
Obs. Time: 08:00
Wind Vel: 21  km/hr  Wind Dir: SW
Air Temp: 1 C Snow Temp:
Weather: FreezingDrizzle Snow Cond: Wet packed

Open Women 15 km. Free Pursuit    
Bib Start Time Name SubCategory CCCLic DOB Club Team Diff
101 10:00:00.00 ZoŽ Williams Senior Women 27366 1997 Nakkertok Nordique (QC) QCST/ Carleton U +2:15.40
102 10:00:37.00 Mia Serratore Senior Women 23769 1996 Big Thunder Nordic   +3:53.70
103 10:01:18.00 Laura Leclair Senior Women 27396 1997 Chelsea Nordiq (QC) CNEPH  
104 10:01:18.00 Annika Richardson Senior Women 27417 1998 Lappe Nordic NTDC TBay +2:21.60
105 10:01:55.00 Alannah Maclean Senior Women 19646 1993 Big Thunder Nordic Lakehead U +4:00.70
106 10:02:42.00 Katie Weaver Senior Women 26344 1997 Hollyburn Ski Club RMR +5:58.70
107 10:02:52.00 Tove Halvorsen Junior Women 31050 1999 Nakkertok Nordique (QC) QCST +2:08.10
108 10:03:19.00 Bronwyn Williams Junior Women 31834 1999 Nakkertok Nordique (QC)   +56.50
109 10:03:56.00 Liliane Gagnon Junior Women 36478 2002 Skibec   +2:31.50
110 10:04:08.00 Alexandra Racine Junior Women 29499 1999 Orford   +33.20
111 10:04:10.00 Maggie McClure Senior Women 30248 1998 Halifax Nordic NSST +6:33.00
112 10:04:38.00 Erin Yungblut Senior Women 21597 1993 Rocky Mountain Racers RMR +6:33.80
113 10:04:40.00 Shaylynn Loewen Junior Women 33371 2000 Georgian Nordic NTDC TBay  
114 10:04:51.00 Hannah Shields Senior Women 37995 1998 Nakkertok Nordique (QC)   +7:16.90
115 10:04:58.00 Emma Holmes Senior Women 29422 1998 Rocky Mountain Racers Carleton U +7:04.60
116 10:04:59.00 Alyssa Stowe Senior Women 27371 1997 Carleton University Carleton U +7:09.50
117 10:05:00.00 Freya Hik Senior Women 33376 1995 Hollyburn Ski Club   +6:32.80
118 10:05:09.00 Erika Mihell Senior Women 28155 1997 Soo Finnish Lakehead U +11:01.70
119 10:05:35.00 Emily Drake Senior Women 35751 1998 North Bay Nordic Nipissing U +7:21.50
120 10:05:41.00 Heidi Stewart Junior Women 27375 2000 Big Thunder Nordic NTDC TBay +3:53.10
121 10:05:51.00 Sonjaa Schmidt Junior Women 37239 2002 Whitehorse Ski Club YTST +4:11.80
122 10:06:10.00 Sophia Marshall Junior Women 36521 2003 Highlands Trailblazers   ***
123 10:06:16.00 Laura Inkila Senior Women 25805 1997 Lappe Nordic Carleton U +8:18.90
124 10:06:20.00 Soren Meeuwisse Senior Women DL12 1997 Team Hardwood McMaster U +11:57.10
125 10:06:32.00 Chloe Ranahan Junior Women 33123 2000 Nakkertok Nordic (ON) Carleton U +4:30.70
126 10:06:52.00 Sophia Slater Junior Women 37777 1999 North Bay Nordic Nipissing U +5:55.50
127 10:07:11.00 Dahlia Lapointe Junior Women 37234 2002 Whitehorse Ski Club YTST +10:56.10
128 10:07:56.00 Isabelle Maclean Senior Women DL49 1995 Walden Cross Country U of Toronto +12:15.90
129 10:08:32.00 Shelby Dickey Senior Women 21473 1994 Highlands Trailblazers   ***
130 10:08:34.00 Jessica Roach Senior Women 35355 1998 Team Hardwood Georgian College +12:04.60
131 10:08:46.00 Lotte Kallio Junior Women 33385 1999 Chelsea Nordiq (QC)   +5:08.60
132 10:09:15.00 Allison Caswell Junior Women 34761 1999 Walden Cross Country U of Guelph +7:44.70
133 10:09:28.00 Madeline Aarts Senior Women DL47 1997 University of Guelph U of Guelph +12:36.50
134 10:10:14.00 Meghan Burns Junior Women 31412 1999 Nakkertok Nordic (ON) Carleton U +7:22.60
135 10:10:24.00 Marlee Sauder Senior Women 29479 1996 Wildwood   +7:22.10
136 10:10:27.00 Jillian Flower Masters Women DL5 1973 Individual    
137 10:10:32.00 Mariah Hudec Senior Women 24504 1992 North Highlands Nordic NSST +15:28.10
138 10:10:58.00 Shelby Howard Senior Women 29274 1998 Carleton University Carleton U +12:56.30
139 10:11:31.00 Raylan Stroud Senior Women 38916 1996 Arrowhead Nordic U of Guelph +14:59.40
140 10:11:36.00 Katja Zbogar Senior Women DL23 1998 Team Hardwood U of Guelph +18:50.00
141 10:12:00.00 Hannah Skelton Junior Women DL24 2000 Highlands Trailblazers   ***
142 10:12:00.00 Lydia Harris Senior Women DL35 1997 Laurentian Nordic Laurentian U +13:22.60
143 10:12:00.00 Laura Parent Junior Women 43079 2000 Carleton University Carleton U +12:52.90
144 10:12:00.00 Christine Huet Masters Women DL1 1962 Highlands Trailblazers   +29.90
145 10:12:00.00 Emerson Bach Junior Women 41189 1999 North Bay Nordic Nipissing U +11:36.20
146 10:12:00.00 Katie Grove Senior Women DL48 1996 Laurentian Nordic Laurentian U +19:31.30
147 10:12:00.00 Tessa Warkentine Junior Women 36512 2000 Boundary Trails Nordic MBST +13:48.10
148 10:12:00.00 Lindsay Raymond Junior Women DL69 1999 Georgian Nordic NOD Jr Lakers +13:10.40
149 10:12:00.00 Fiona Schute Junior Women 33147 2000 Nakkertok Nordic (ON)   +12:40.50
150 10:12:00.00 Jordyn Leighton Senior Women DL68 1998 Carleton University Carleton University +14:01.70
151 10:12:00.00 Lauren Denstedt Junior Women 41181 1999 Waterloo Region U of Waterloo +12:22.20
152 10:12:00.00 Angela Cronhelm Junior Women 30224 2000 Aurora Nordic XCNL +18:54.10
153 10:12:00.00 Olivia Wolfram Junior Women DL32 1999 Laurentian Nordic Laurentian U +14:14.70
154 10:12:00.00 Marina Tusz Senior Women DL31 1998 Laurentian Nordic Laurentian U ***
155 10:12:00.00 Miriam Lutes Junior Women DL38 2000 University of Guelph U of Guelph +15:13.10
156 10:12:00.00 Emiko Arai Junior Women 43087 2000 Waterloo Region U of Waterloo +22:27.00
157 10:12:00.00 Jasmin Tuhkasaari Senior Women DL36 1998 University of Guelph U of Guelph +29:10.80
158 10:12:00.00 Claire Parrott Senior Women 38849 1997 Waterloo Region U of Waterloo +26:04.20
159 10:12:00.00 Holly Fleming Senior Women 42164 1995 Big Thunder Nordic Lakehead University ***
160 10:12:00.00 Rylee Dawson Senior Women 38854 1997 Georgian Bay Nordic   +40:26.40
161 10:12:00.00 Sydney Rasberry Senior Women DL13 1999 Queen's University Queen's ***


Results are posted through an automated system by licenced clubs. For inquires about result corrections please contact the race organizer.

Copyright 2021 - Zone4 Systems zone4.ca       Privacy Policy     Delivery/Refund Policy     Terms of Service    Contact Zone4